Location: Hilton Head Island
(32.2163°N, 80.7526°W)
Time: 16:39:40
(UTC-04:00)

Transit 2A Rocket - Pass Details

Date: 10 February 2026
Orbit: 583 x 900 km, 66.7° (Epoch: 8 March)

Event Time Altitude Azimuth Distance (km) Brightness Sun altitude
Rises 16:13:48 0° 159° (SSE) 3,396 8.5 20.5°
Reaches altitude 10° 16:17:15 10° 138° (SE) 2,510 7.6 19.9°
Maximum altitude 16:20:34 16° 103° (ESE) 2,167 7.0 19.3°
Drops below altitude 10° 16:23:57 10° 68° (ENE) 2,569 7.2 18.7°
Sets 16:27:31 0° 48° (NE) 3,520 7.8 18.1°
